Wind_Speed
12 12 6 6 7 8 13 3 6 10 3 4 3 7 12 11 9 5 4 2 1 2 6 10 8 8 12 14 16 17 17 18 20 21 21 20 21 20 18 17 18 17 16 14 14 12 14 13 15
11 7 5 12 8 12 0 8 7 10 10 2 4 5 7 5 6 2 2 3 3 3 5 7 13 12 15 15 16 18 19 20 23 23 21 21 22 25 22 18 16 18 17 15 14 13 13 13 14
10 5 12 10 12 13 10 8 10 8 2 9 6 2 5 7 2 2 1 4 4 4 6 8 13 16 15 15 17 20 21 23 24 24 24 23 24 24 24 23 19 19 18 15 15 14 13 14 14
7 7 11 9 17 9 6 13 11 13 5 6 7 8 4 4 3 1 2 3 5 6 7 12 17 18 18 19 21 21 22 23 24 25 26 26 27 26 25 25 24 20 18 17 16 16 14 14 15
8 12 11 16 15 9 4 11 11 9 9 4 1 7 1 5 4 2 3 4 6 8 8 8 17 19 18 21 23 22 24 26 27 28 27 27 27 26 26 26 26 24 21 19 19 17 17 17 17
12 15 12 14 7 8 4 5 8 12 8 3 5 7 3 7 4 4 4 5 5 6 6 6 13 16 16 18 20 23 25 26 27 28 30 30 31 32 33 30 27 25 23 20 20 20 18 19 19
16 11 16 16 16 13 5 4 12 12 13 8 3 8 2 4 5 7 6 6 5 4 4 6 8 12 17 17 19 21 23 26 28 30 33 34 33 32 32 27 25 25 24 21 23 21 20 20 17
18 12 20 16 13 12 12 1 13 8 9 5 5 6 10 4 9 6 6 6 5 6 5 8 11 12 13 12 18 26 22 24 28 29 30 32 28 24 23 23 24 24 22 20 18 17 21 20 19
16 13 15 18 16 10 14 12 5 4 12 8 7 9 4 5 8 8 8 8 7 8 9 11 11 11 11 12 14 19 18 22 20 17 19 20 13 13 17 15 21 23 22 22 19 17 20 21 22
19 13 20 15 14 12 18 19 20 7 11 10 10 10 7 8 10 10 10 8 7 9 9 11 11 11 10 10 12 14 16 20 17 14 14 14 13 13 14 16 16 22 23 23 21 17 19 25 14
23 18 18 18 18 16 17 19 12 9 10 9 4 8 15 13 13 13 11 8 6 6 7 9 11 10 11 10 12 12 14 20 15 15 10 13 13 9 14 14 15 17 21 20 19 16 16 17 15
21 22 23 19 23 19 13 12 10 9 11 7 7 7 9 14 14 14 12 9 5 6 7 8 9 9 10 10 10 11 14 14 11 11 10 11 7 11 11 13 13 18 19 18 20 18 13 16 18
18 18 25 27 20 18 16 10 11 12 8 7 7 10 13 15 15 13 12 9 6 5 6 7 8 8 10 10 9 13 13 9 9 10 11 9 11 13 9 9 14 17 20 22 19 14 17 16 18
26 29 22 20 20 18 12 17 7 13 3 6 11 12 13 14 16 14 12 8 6 5 5 6 6 7 7 10 14 14 12 10 9 10 9 10 9 9 9 8 12 18 23 21 20 16 12 19 19
25 19 20 19 21 17 14 17 16 14 11 12 12 14 15 16 15 16 13 9 7 5 5 5 6 7 8 12 13 14 12 12 10 10 10 10 12 9 6 6 8 13 20 21 18 18 15 17 18
19 23 19 21 23 17 11 20 16 15 14 14 15 16 14 16 16 15 13 10 7 4 5 5 5 6 8 10 11 13 11 12 11 10 13 13 13 11 7 6 8 10 17 17 17 16 16 18 19
20 18 22 20 12 14 17 20 19 9 13 15 16 16 15 16 17 16 14 10 7 4 4 3 5 5 8 9 9 11 13 10 11 11 11 14 13 11 9 7 8 10 13 17 16 19 18 20 20
21 23 20 17 14 13 16 19 19 19 19 19 21 16 15 18 19 18 15 11 8 5 5 2 3 5 9 10 10 11 11 9 8 9 8 7 12 11 10 9 10 12 13 15 18 21 20 19 19
22 20 17 13 7 14 10 17 20 23 18 21 23 17 16 18 17 18 16 13 9 6 5 3 3 5 7 8 12 11 9 6 8 10 11 8 10 11 10 9 11 13 13 14 17 20 19 18 18
24 20 18 15 14 9 13 19 20 20 23 25 23 19 14 17 19 19 18 15 11 7 6 3 2 4 5 6 9 8 7 2 7 10 13 4 3 10 11 12 10 10 11 13 16 17 18 16 20
23 20 16 17 15 10 13 23 22 15 13 17 15 10 13 18 21 21 20 16 11 8 6 4 1 1 4 6 6 8 7 6 6 9 8 9 2 7 10 13 14 14 10 10 15 13 10 12 15
21 18 18 15 14 13 14 16 16 16 10 10 16 16 15 16 20 22 20 17 13 9 8 5 2 2 3 6 6 7 8 5 4 6 10 9 5 8 10 13 14 14 13 13 12 11 11 14 16
18 17 15 12 15 17 18 12 16 11 10 7 10 18 16 18 23 23 21 18 13 10 9 6 3 3 2 5 6 6 7 12 3 1 9 11 10 6 8 16 16 15 11 12 15 13 14 17 16
20 14 14 9 11 15 18 15 15 9 2 5 5 3 15 18 22 22 20 17 14 10 10 7 5 4 2 3 5 6 9 10 9 3 3 9 10 7 7 13 17 17 16 15 17 15 17 17 18
15 13 10 12 13 13 15 9 10 14 5 7 4 8 11 17 22 24 23 20 15 13 11 8 6 4 3 1 3 6 9 14 13 9 7 8 8 12 9 12 12 14 16 18 20 20 20 23 23
22 19 12 13 13 13 10 7 6 1 2 4 5 4 12 17 22 24 23 19 15 14 12 9 7 5 4 2 2 5 7 11 14 11 9 8 8 11 9 13 13 13 17 20 20 24 26 31 29
17 20 20 18 17 12 8 8 8 6 11 9 6 5 12 19 23 24 22 19 15 15 13 11 8 7 5 3 3 4 7 8 13 14 14 15 13 8 11 16 14 15 20 23 23 27 26 29 27
22 20 18 12 16 16 13 10 4 10 2 7 6 9 15 22 23 22 21 19 16 15 13 11 9 7 6 5 4 4 7 9 9 10 10 9 14 14 16 16 19 19 18 22 24 25 23 22 23
20 21 14 14 12 11 10 8 8 5 5 3 9 12 21 23 23 22 21 18 16 15 14 12 10 9 8 6 5 6 7 8 9 10 11 12 14 13 15 11 13 17 20 23 24 22 20 18 19
26 26 22 10 17 12 13 2 8 7 7 2 12 16 21 22 22 21 21 19 18 17 15 13 12 10 9 8 7 7 8 8 10 12 13 15 17 16 12 13 16 18 20 20 20 18 16 19 19
Wind_Direction
145 140 133 227 242 223 263 242 28 292 220 91 339 317 342 322 351 5 125 144 90 148 208 270 265 291 300 299 293 293 291 294 292 290 287 291 293 298 300 294 284 278 273 266 262 249 262 251 236
153 157 206 272 260 264 341 27 329 356 360 300 257 271 267 0 21 54 232 162 183 228 211 231 268 295 307 298 283 280 282 283 283 285 284 283 288 295 295 298 288 277 268 264 258 257 251 253 237
162 193 270 244 241 270 334 18 360 343 290 257 261 203 338 49 93 26 134 172 218 240 262 251 268 298 293 273 270 276 278 277 280 282 281 282 283 284 284 289 284 281 266 257 254 250 250 249 232
172 217 243 254 282 301 342 332 336 312 234 250 299 299 125 123 126 117 194 221 257 280 273 278 282 292 280 273 275 277 278 279 279 278 278 280 281 280 279 278 273 270 263 247 246 245 236 233 237
220 260 264 258 262 288 322 310 335 302 291 297 138 301 269 148 167 184 221 242 257 280 276 289 281 288 275 268 265 267 275 276 278 279 278 277 278 276 278 277 272 259 258 245 241 237 232 236 229
232 235 273 273 300 262 299 349 312 290 290 268 277 304 331 137 167 218 229 237 255 271 272 290 287 294 290 275 273 277 278 278 279 280 280 278 277 278 278 274 266 256 249 243 240 237 236 235 232
250 270 268 285 289 298 304 31 289 312 303 310 4 301 317 197 193 203 214 227 241 253 282 292 292 289 307 303 295 284 280 278 278 279 279 278 276 273 272 268 257 254 244 238 244 239 230 236 234
250 261 269 274 278 279 296 258 274 281 309 330 299 276 333 142 186 207 218 249 261 282 296 291 301 298 288 288 295 292 289 278 282 283 285 283 278 275 270 266 252 246 240 235 234 235 223 228 230
240 258 263 269 283 303 303 289 273 222 282 238 271 274 305 185 194 216 223 242 264 281 294 303 296 288 285 291 288 293 311 301 300 294 286 287 289 271 263 257 243 240 226 222 226 230 219 222 227
234 247 259 287 303 301 300 297 298 256 253 233 239 248 238 215 216 224 228 251 262 282 287 298 291 287 295 298 292 299 300 292 296 294 286 283 276 264 250 245 244 228 220 223 224 229 221 221 223
230 245 272 287 287 284 302 289 290 277 270 298 282 258 206 216 222 229 242 251 265 277 298 293 286 290 299 288 291 300 283 289 294 304 301 296 293 263 259 234 245 234 220 220 224 228 222 217 213
241 244 270 278 270 268 277 299 289 268 270 306 290 276 227 226 226 230 237 239 258 276 300 298 290 292 291 295 302 289 286 290 301 315 288 284 287 286 266 250 227 225 218 217 204 202 219 204 211
234 254 254 261 256 259 274 268 264 282 287 276 261 248 239 232 231 226 227 222 239 279 289 297 295 294 298 306 299 283 287 304 282 281 274 258 248 256 263 241 220 219 216 215 201 204 202 205 210
235 238 254 259 254 256 240 258 190 268 252 267 253 252 246 238 226 218 218 216 235 266 285 298 305 299 308 307 291 297 297 291 283 278 274 267 270 266 273 247 230 216 210 205 207 191 198 208 198
255 255 255 254 253 250 233 255 246 252 232 253 255 246 243 231 222 216 218 214 224 253 278 299 309 308 315 317 309 300 288 282 269 250 265 273 271 269 272 234 246 209 192 193 190 179 197 183 176
246 243 254 250 225 226 220 255 259 228 246 257 256 244 246 231 219 214 209 206 217 232 267 290 299 307 309 303 311 316 308 298 288 276 258 257 258 260 262 235 202 174 182 178 173 182 183 177 173
227 245 243 249 202 221 207 257 276 246 270 267 278 268 242 226 217 210 205 203 209 225 247 275 295 317 309 305 312 324 321 295 290 282 277 258 252 244 245 227 189 178 177 173 169 177 183 178 177
227 234 232 249 215 202 252 252 255 250 251 269 266 251 241 223 213 208 202 199 202 212 231 265 315 313 317 335 325 328 327 328 317 313 305 288 249 237 230 222 199 183 177 176 173 176 177 175 174
248 263 273 281 284 247 252 276 281 286 275 267 269 243 238 219 209 203 200 197 196 206 218 246 291 305 330 344 342 337 336 5 342 340 333 300 245 224 227 203 183 175 176 171 166 165 177 188 179
242 256 261 262 271 270 280 283 283 288 274 271 265 236 226 209 200 196 197 195 196 203 207 215 286 308 343 348 348 358 1 341 13 9 19 32 185 193 200 175 165 170 172 164 168 169 176 166 165
230 243 250 261 275 253 284 270 266 264 270 269 256 234 221 207 197 194 194 194 192 195 194 182 207 338 17 48 355 2 347 341 347 7 10 33 125 173 176 174 168 167 166 161 162 164 157 160 167
234 228 247 268 273 263 271 293 294 276 274 268 225 214 230 197 195 194 192 192 190 191 182 173 172 83 6 53 355 344 348 342 329 27 28 15 57 148 177 165 173 166 164 178 170 166 163 165 160
235 242 249 232 256 271 266 267 283 266 250 271 239 223 189 189 191 190 189 189 187 183 181 176 168 116 74 39 21 20 357 2 346 36 26 33 80 109 157 171 172 175 180 183 176 171 166 156 162
232 227 252 265 257 257 260 262 270 285 92 296 243 142 155 178 182 184 184 183 183 181 183 180 174 144 140 43 14 21 13 11 15 43 77 65 62 75 127 161 174 180 185 181 168 165 158 153 150
211 215 223 227 232 247 250 243 283 295 303 278 282 157 164 173 177 178 179 181 182 183 184 181 172 157 156 71 31 19 11 11 36 60 105 65 62 59 116 145 153 157 167 161 161 155 150 138 133
198 212 225 218 236 254 130 242 291 183 344 269 268 269 147 170 176 178 179 180 184 185 186 181 174 168 156 115 64 40 43 50 64 66 67 63 61 52 102 133 138 143 149 151 146 144 139 137 139
189 217 228 258 283 288 273 281 220 197 231 206 191 185 163 171 172 177 178 181 184 185 186 182 174 174 165 136 98 71 57 64 72 79 77 60 59 70 107 111 112 130 132 140 140 143 142 151 139
216 199 219 230 250 262 251 249 244 184 152 93 157 181 164 167 171 177 179 181 183 184 186 183 178 179 170 146 119 109 76 81 78 72 62 66 58 78 118 111 99 119 125 135 139 148 144 147 156
206 229 201 247 224 236 250 271 99 111 99 124 147 165 166 169 172 176 180 182 181 182 185 184 182 180 174 153 136 123 102 97 92 80 75 92 74 93 111 123 114 123 124 133 137 137 138 148 160
212 211 215 214 223 250 269 244 99 169 143 190 140 165 169 173 174 175 179 181 181 181 184 182 183 183 179 162 151 132 119 111 103 95 93 94 90 91 108 127 123 123 118 132 137 138 147 143 133
Height
1526 1525 1530 1531 1524 1503 1493 1481 1484 1489 1489 1498 1502 1503 1503 1505 1504 1513 1519 1520 1521 1522 1523 1521 1521 1521 1521 1520 1520 1521 1521 1520 1519 1518 1517 1517 1517 1519 1519 1518 1517 1516 1516 1518 1519 1521 1521 1521 1522
1527 1529 1530 1524 1515 1501 1490 1480 1488 1489 1495 1503 1504 1504 1503 1504 1511 1514 1517 1518 1520 1521 1521 1521 1520 1519 1519 1518 1517 1518 1517 1517 1516 1515 1514 1514 1513 1513 1513 1514 1513 1513 1513 1515 1517 1518 1519 1519 1520
1529 1530 1526 1510 1500 1497 1492 1486 1489 1493 1499 1502 1500 1504 1506 1508 1514 1516 1518 1518 1520 1520 1520 1518 1518 1517 1516 1515 1514 1515 1514 1513 1513 1511 1510 1510 1510 1510 1510 1510 1510 1510 1510 1512 1514 1515 1516 1517 1518
1529 1529 1523 1512 1501 1491 1492 1491 1494 1495 1494 1500 1500 1500 1508 1512 1515 1516 1517 1519 1520 1520 1519 1516 1515 1514 1513 1512 1510 1510 1510 1509 1508 1507 1506 1506 1505 1505 1506 1506 1506 1507 1507 1509 1510 1512 1512 1514 1515
1528 1521 1510 1504 1494 1486 1491 1494 1496 1496 1493 1494 1500 1500 1503 1510 1513 1515 1515 1517 1517 1519 1518 1516 1513 1511 1510 1509 1507 1507 1505 1505 1504 1502 1501 1501 1501 1501 1501 1501 1502 1502 1503 1504 1506 1508 1509 1510 1512
1522 1514 1510 1500 1489 1491 1488 1494 1498 1495 1494 1493 1501 1501 1503 1508 1511 1513 1513 1514 1514 1514 1513 1513 1510 1508 1506 1504 1503 1502 1501 1501 1499 1498 1496 1496 1496 1495 1495 1496 1496 1497 1499 1500 1501 1504 1506 1507 1508
1518 1508 1503 1497 1492 1489 1488 1494 1497 1494 1494 1494 1497 1502 1503 1506 1509 1510 1511 1510 1510 1510 1510 1510 1509 1507 1502 1501 1499 1498 1497 1496 1494 1492 1490 1489 1489 1489 1488 1489 1490 1492 1494 1496 1497 1500 1502 1503 1505
1516 1509 1503 1495 1490 1490 1486 1491 1491 1495 1494 1499 1502 1500 1500 1504 1506 1507 1509 1510 1509 1509 1508 1508 1507 1506 1503 1502 1497 1493 1493 1491 1488 1486 1484 1481 1481 1482 1483 1483 1484 1487 1489 1492 1494 1496 1498 1500 1502
1512 1509 1501 1493 1487 1484 1485 1486 1487 1492 1497 1496 1499 1501 1503 1504 1503 1505 1506 1508 1508 1507 1506 1506 1504 1502 1500 1498 1496 1492 1489 1486 1483 1481 1479 1477 1477 1480 1480 1479 1480 1482 1485 1488 1491 1493 1495 1497 1499
1507 1502 1494 1487 1485 1487 1488 1486 1483 1486 1489 1492 1496 1499 1500 1503 1502 1503 1504 1504 1504 1505 1504 1503 1500 1497 1494 1494 1493 1490 1488 1483 1480 1477 1476 1474 1475 1475 1476 1475 1476 1478 1481 1484 1487 1489 1492 1494 1498
1499 1496 1492 1490 1491 1488 1486 1485 1481 1484 1486 1484 1487 1490 1495 1498 1499 1500 1501 1501 1502 1501 1501 1500 1497 1493 1491 1491 1489 1488 1486 1481 1477 1475 1473 1471 1470 1472 1472 1473 1474 1475 1477 1480 1484 1487 1488 1493 1496
1492 1492 1492 1492 1491 1486 1484 1482 1482 1484 1485 1485 1489 1491 1492 1495 1496 1497 1498 1499 1500 1499 1498 1497 1495 1491 1488 1487 1486 1486 1483 1479 1476 1473 1471 1470 1470 1470 1469 1469 1471 1473 1476 1477 1480 1484 1488 1490 1494
1487 1490 1492 1486 1484 1482 1481 1481 1482 1481 1481 1484 1487 1488 1489 1491 1492 1494 1497 1497 1497 1497 1496 1494 1491 1488 1485 1483 1483 1482 1478 1476 1475 1474 1471 1468 1468 1467 1467 1467 1467 1470 1472 1475 1478 1482 1486 1489 1491
1485 1483 1482 1480 1478 1479 1481 1478 1480 1480 1480 1483 1484 1484 1485 1487 1490 1492 1495 1495 1496 1495 1494 1491 1489 1486 1484 1482 1480 1478 1476 1474 1473 1472 1469 1467 1466 1465 1464 1464 1464 1466 1468 1472 1476 1480 1483 1486 1488
1479 1480 1477 1476 1475 1475 1477 1478 1473 1478 1477 1476 1478 1480 1481 1483 1486 1489 1492 1492 1493 1492 1491 1489 1488 1485 1483 1481 1479 1476 1473 1471 1470 1469 1466 1466 1465 1464 1463 1462 1462 1462 1465 1469 1474 1477 1481 1484 1488
1476 1474 1477 1464 1463 1470 1477 1478 1463 1468 1471 1472 1474 1474 1477 1479 1483 1486 1489 1490 1490 1489 1489 1488 1486 1484 1482 1480 1477 1473 1471 1468 1466 1463 1461 1461 1462 1462 1462 1462 1461 1462 1465 1468 1472 1477 1480 1483 1487
1472 1477 1469 1461 1454 1464 1469 1472 1461 1462 1465 1467 1469 1469 1471 1475 1481 1484 1486 1487 1488 1487 1487 1486 1484 1483 1481 1478 1476 1473 1469 1466 1463 1461 1459 1459 1459 1460 1460 1461 1462 1463 1465 1467 1471 1476 1480 1483 1487
1468 1462 1456 1459 1448 1456 1462 1462 1457 1456 1458 1460 1460 1463 1466 1471 1475 1480 1483 1485 1485 1485 1485 1484 1483 1482 1479 1477 1474 1472 1469 1465 1461 1459 1457 1456 1456 1456 1458 1459 1462 1464 1466 1468 1470 1474 1478 1483 1486
1452 1451 1450 1444 1442 1450 1455 1459 1455 1451 1450 1451 1453 1454 1460 1465 1472 1477 1480 1482 1482 1483 1484 1483 1482 1481 1478 1477 1475 1473 1469 1467 1462 1458 1454 1452 1451 1454 1457 1458 1461 1464 1466 1469 1471 1475 1479 1481 1485
1451 1452 1453 1448 1445 1449 1453 1456 1450 1447 1444 1443 1444 1447 1454 1462 1468 1473 1476 1479 1480 1481 1482 1482 1482 1481 1478 1477 1475 1471 1468 1466 1463 1459 1455 1452 1451 1452 1455 1458 1461 1465 1467 1469 1472 1475 1477 1481 1483
1446 1451 1451 1453 1445 1445 1452 1452 1440 1435 1434 1437 1439 1443 1448 1456 1463 1469 1473 1476 1478 1479 1480 1481 1481 1479 1477 1476 1475 1472 1469 1465 1463 1459 1457 1453 1451 1452 1454 1457 1462 1464 1468 1470 1473 1475 1478 1481 1485
1447 1442 1446 1451 1456 1463 1445 1458 1441 1432 1428 1430 1433 1438 1445 1452 1460 1465 1470 1474 1476 1478 1479 1480 1480 1479 1478 1476 1475 1472 1468 1465 1464 1461 1458 1455 1453 1453 1454 1457 1461 1464 1468 1472 1474 1477 1480 1483 1486
1439 1438 1441 1447 1456 1455 1451 1454 1437 1423 1424 1426 1426 1429 1437 1446 1455 1461 1466 1471 1474 1476 1478 1479 1479 1478 1478 1476 1474 1472 1469 1466 1463 1461 1460 1457 1455 1455 1455 1457 1461 1466 1467 1471 1474 1477 1480 1483 1487
1432 1439 1443 1446 1453 1466 1448 1446 1434 1421 1422 1424 1423 1426 1435 1443 1451 1458 1465 1469 1473 1475 1477 1478 1479 1478 1478 1477 1475 1473 1469 1466 1463 1461 1462 1460 1458 1456 1456 1458 1460 1464 1467 1470 1473 1477 1481 1484 1488
1431 1444 1461 1470 1462 1459 1427 1438 1430 1419 1419 1421 1422 1426 1434 1442 1449 1456 1462 1466 1470 1473 1475 1477 1478 1478 1478 1478 1476 1474 1472 1467 1464 1461 1462 1462 1461 1458 1459 1460 1462 1464 1466 1470 1474 1478 1483 1486 1490
1428 1436 1447 1469 1456 1436 1422 1442 1423 1414 1419 1422 1425 1428 1433 1442 1448 1455 1460 1465 1469 1472 1474 1476 1477 1478 1478 1477 1476 1475 1473 1470 1466 1465 1465 1465 1463 1462 1462 1463 1464 1465 1468 1472 1476 1481 1486 1490 1494
1420 1434 1427 1438 1430 1438 1423 1416 1410 1414 1415 1417 1422 1430 1435 1442 1448 1454 1459 1463 1467 1470 1473 1475 1477 1478 1478 1477 1477 1476 1475 1473 1470 1469 1469 1468 1466 1465 1465 1466 1467 1468 1471 1475 1479 1484 1488 1493 1497
1407 1415 1437 1432 1458 1459 1430 1423 1422 1416 1412 1416 1423 1429 1436 1442 1447 1453 1458 1462 1466 1469 1472 1474 1476 1477 1478 1478 1478 1477 1477 1476 1474 1474 1473 1471 1470 1468 1469 1470 1471 1473 1476 1479 1482 1487 1492 1496 1500
1407 1412 1417 1421 1426 1440 1443 1422 1399 1408 1412 1417 1420 1429 1436 1441 1446 1451 1457 1462 1465 1468 1471 1473 1476 1477 1478 1478 1478 1479 1479 1478 1477 1477 1476 1474 1473 1473 1474 1475 1476 1478 1480 1483 1486 1490 1493 1497 1500
1393 1402 1407 1425 1437 1423 1418 1416 1399 1408 1412 1417 1418 1429 1436 1441 1445 1450 1455 1460 1464 1467 1470 1472 1475 1477 1478 1479 1479 1479 1480 1480 1480 1480 1480 1479 1478 1477 1478 1479 1480 1482 1484 1487 1490 1493 1495 1497 1500